Location: Arapaho Elementary School
(32.9607°N, 96.7625°W)
Time: 19:53:43
(UTC+00:00)

H-2A R/B (2) - Pass Details

Date: 06 July 2022
Orbit: 428 x 34396 km, 28.9° (Epoch: 07 August)

Event Time Altitude Azimuth Distance (km) Brightness Sun altitude
Exits shadow 06:00:56 - 155° (SSE) 20,186 8.7 -33.9°
Reaches altitude 10° 06:25:25 10° 150° (SSE) 24,307 9.1 -34.3°
Maximum altitude 14:02:47 60° 154° (SSE) 12,271 8.7 30.6°
Drops below altitude 10° 14:37:19 10° 84° (E) 6,460 8.0 37.8°
Sets 14:40:01 0° 80° (E) 6,629 7.7 38.3°
